TimeBST,TemperatureF,Dew PointF,Humidity,Sea Level PressureIn,VisibilityMPH,Wind Direction,Wind SpeedMPH,Gust SpeedMPH,PrecipitationIn,Events,Conditions,WindDirDegrees,DateUTC
8:50 AM,62.6,60.8,94,30.33,6.2,Variable,2.3,-,N/A,,Partly Cloudy,0,2013-07-11 07:50:00
9:20 AM,64.4,62.6,94,30.30,6.2,Variable,1.2,-,N/A,,Scattered Clouds,0,2013-07-11 08:20:00
9:50 AM,66.2,64.4,94,30.30,6.2,Calm,Calm,26.5,N/A,,Partly Cloudy,0,2013-07-11 08:50:00
10:20 AM,68.0,64.4,88,30.30,6.2,NE,3.5,-,N/A,,Partly Cloudy,40,2013-07-11 09:20:00
10:50 AM,69.8,66.2,88,30.30,6.2,East,3.5,-,N/A,,Partly Cloudy,80,2013-07-11 09:50:00
11:20 AM,71.6,66.2,83,30.30,6.2,NE,2.3,-,N/A,,Partly Cloudy,50,2013-07-11 10:20:00
11:50 AM,73.4,66.2,78,30.30,6.2,ENE,3.5,-,N/A,,Partly Cloudy,60,2013-07-11 10:50:00
12:20 PM,75.2,68.0,78,30.30,6.2,Variable,5.8,-,N/A,,Partly Cloudy,0,2013-07-11 11:20:00
12:50 PM,75.2,68.0,78,30.30,6.2,ENE,5.8,-,N/A,,Partly Cloudy,60,2013-07-11 11:50:00
1:20 PM,77.0,68.0,74,30.30,6.2,NE,4.6,-,N/A,,Partly Cloudy,50,2013-07-11 12:20:00
1:50 PM,77.0,68.0,74,30.30,6.2,NE,5.8,-,N/A,,Partly Cloudy,50,2013-07-11 12:50:00
2:20 PM,78.8,66.2,65,30.27,6.2,NNE,5.8,-,N/A,,Partly Cloudy,20,2013-07-11 13:20:00
2:50 PM,78.8,66.2,65,30.27,6.2,NE,5.8,-,N/A,,Partly Cloudy,50,2013-07-11 13:50:00
3:20 PM,78.8,68.0,69,30.27,6.2,NE,6.9,-,N/A,,Partly Cloudy,40,2013-07-11 14:20:00
3:50 PM,78.8,69.8,74,30.27,6.2,ENE,10.4,-,N/A,,Partly Cloudy,70,2013-07-11 14:50:00
4:20 PM,77.0,66.2,69,30.27,6.2,ENE,11.5,-,N/A,,Partly Cloudy,60,2013-07-11 15:20:00
4:50 PM,77.0,68.0,74,30.27,6.2,NE,10.4,-,N/A,,Partly Cloudy,50,2013-07-11 15:50:00
5:20 PM,75.2,68.0,78,30.27,6.2,NE,11.5,-,N/A,,Partly Cloudy,50,2013-07-11 16:20:00
5:50 PM,73.4,66.2,78,30.27,6.2,NE,11.5,-,N/A,,Partly Cloudy,50,2013-07-11 16:50:00
6:20 PM,73.4,66.2,78,30.27,6.2,NE,11.5,-,N/A,,Partly Cloudy,40,2013-07-11 17:20:00
6:50 PM,73.4,66.2,78,30.24,6.2,NE,11.5,-,N/A,,Partly Cloudy,40,2013-07-11 17:50:00
7:20 PM,73.4,66.2,78,30.27,6.2,NE,10.4,-,N/A,,Partly Cloudy,50,2013-07-11 18:20:00
7:50 PM,71.6,64.4,78,30.27,6.2,NE,9.2,-,N/A,,Partly Cloudy,40,2013-07-11 18:50:00
8:20 PM,69.8,64.4,83,30.27,6.2,NE,5.8,-,N/A,,Partly Cloudy,50,2013-07-11 19:20:00
8:50 PM,69.8,64.4,83,30.27,-9999.0,NE,5.8,-,N/A,,Clear,50,2013-07-11 19:50:00